TITAN 3C TRANSTAGE DEB, 59979

Orbit data source: Space-Track

TITAN 3C TRANSTAGE DEB, 59979 is space debris in GEO originally from a launch on Thu, 26 Sep 1968 UTC launched from the Air Force Eastern Test Range (AFETR). Debris objects in space refer to the collection of defunct objects orbiting the Earth. Examples of debris include non-operational satellites, rocket bodies, and fragments generated from explosions, collisions, or faulty payload assembly.

Loading next visibility...
Identifier
59979, 1968-081AM
Orbit
GEO
Country
Flag of USUS
Related business
Manufacturer
Unknown
Mission
Spacecraft
Bus & Motor
Unknown
Mass
Unknown
Launch date (UTC)
1968-09-26 (57 years ago)
Launch vehicle
Unknown
Launch site
Air Force Eastern Test Range (AFETR)
Object type
Payload
Rocket body
Debris
Shape & HBR
Unknown shape, 1.1 m
Radar Cross Section
RCS unknown

Expand to show TLE details & history
Last TLE update: 5 days ago

TLE from 5 days ago
0 TITAN 3C TRANSTAGE DEB
1 59979U 68081AM  26058.12424141 -.00000124  00000-0  00000-0 0  9990
2 59979   2.3899  67.0536 0045427 150.3071 210.3621  1.03317785 59945
Epoch: 2026-02-27T02:58Z
TLE epoch observation values (Epoch: 2026-02-27T02:58:54.457Z)
Latitude
0.00001°
Longitude
-134.20337°
Altitude
35,114.568 km
Speed
3.093 km/s
True Right ascension
04h 29m 57s
True Declination
0° 00' 00"
Sunlit
Object was in daylight at epoch
Visualization orbit readout
Latitude
Unknown
Longitude
Unknown
Altitude
Unknown
Speed
Unknown
Apparent Right ascension
Unknown
Apparent Declination
Unknown
Sunlit
N/A
Visualization observer readout
Local Sidereal Time
23:38:10
Azimuth
Unknown
Elevation
Unknown
Doppler factor
Unknown
Orbital elements
Apogee altitude
35,142.59 km
Perigee altitude
34,767.064 km
Semi-major axis
41,332.964 km
Eccentricity
0.00454
Inclination
2.3899°
RAAN
67.0536°
Arg. of periapsis
150.3071°
True anomaly
210.10026°
Mean anomaly
210.3621°
Eccentric anomaly
210.23105°
Mean motion
0.25828 °/min
Orbital period
1,393.81 mins
BSTAR
0
Loading maneuver chart data...
Computing Atmospheric mass density...

Documentation

Showing up to 5 results
|